Showing default

USA 31, 19458

Orbit data source: Space-Track

USA 31, 19458 is an American payload satellite in HEO that was launched on Fri, 02 Sep 1988 UTC via a TITAN 34D/TRANSTAGE launch vehicle from the Air Force Eastern Test Range (AFETR). Payload-class satellites include a variety of spacecraft equipped with specific instruments for various scientific and technological missions. These include communications satellites like Starlink; space stations such as the ISS; scientific satellites like the Hubble; Earth observation satellites from companies like Planet Labs, Umbra, and HawkEye 360; GPS; miniature CubeSats for education and research; and military/defense satellites.

Loading next visibility...
Identifier
19458, 1988-077A
Orbit
HEO
Country
Flag of USUS
Related business
Manufacturer
TRW
Mission
Defense Sigint
Bus & Motor
VORTEX, Unknown motor
Mass
~1,000 kg wet, ~900 kg dry
Launch date (UTC)
1988-09-02 (38 years ago)
Launch vehicle
TITAN 34D/TRANSTAGE
Launch site
Air Force Eastern Test Range (AFETR)
Object type
Payload
Rocket body
Debris
Shape & HBR
Box + 2 Pan + 1 Dish, 15.0 m
Radar Cross Section
36.563 m², Large (>1 m²)

Expand to show TLE details & history
Last TLE update: 2 days ago

TLE from 2 days ago
0 USA 31
1 19458U 88077A   26171.17051262  .00000116  00000-0  17034-1 0  9992
2 19458  27.6966  10.4622 7304360 180.8075 176.5174  2.00759979 15388
Epoch: 2026-06-20T04:05Z
TLE epoch observation values (Epoch: 2026-06-20T04:05:32.290Z)
Latitude
-0°
Longitude
40.69235°
Altitude
39,509.661 km
Speed
1.535 km/s
True Right ascension
00h 41m 51s
True Declination
0° 00' 00"
Sunlit
Object was in daylight at epoch
Visualization orbit readout
Latitude
Unknown
Longitude
Unknown
Altitude
Unknown
Speed
Unknown
Apparent Right ascension
Unknown
Apparent Declination
Unknown
Sunlit
N/A
Visualization observer readout
Local Sidereal Time
23:08:40
Azimuth
Unknown
Elevation
Unknown
Doppler factor
Unknown
Orbital elements
Apogee altitude
39,558.99 km
Perigee altitude
777.86 km
Semi-major axis
26,546.562 km
Eccentricity
0.73044
Inclination
27.6966°
RAAN
10.4622°
Arg. of periapsis
180.8075°
True anomaly
179.20553°
Mean anomaly
176.5174°
Eccentric anomaly
177.98727°
Mean motion
0.5018 °/min
Orbital period
717.42 mins
BSTAR
0.017034
Loading maneuver chart data...
Computing Atmospheric mass density...

Documentation

Showing up to 5 results
|